Tracking 27126 objects as of 30-Mar-2023
HD Live streaming from Space Station
objects crossing your sky now

STARLINK-4143

Track STARLINK-4143 now!
10-day predictions
STARLINK-4143 is classified as:


NORAD ID: 53029
Int'l Code: 2022-076AV
Perigee: 546.3 km
Apogee: 547.5 km
Inclination: 53.2 °
Period: 95.4 minutes
Semi major axis: 6917 km
RCS: Unknown
Launch date: July 7, 2022
Source: United States (US)
Launch site: AIR FORCE EASTERN TEST RANGE (AFETR)
Your satellite tracking list
Your tracking list is empty




NASA's NSSDC Master Catalog

Two Line Element Set (TLE):
1 53029U 22076AV  23089.35726365  .00014186  00000-0  90776-3 0  9997
2 53029  53.2159 221.4745 0000925  29.6690 330.4354 15.08833472 41254
Source of the keplerian elements: AFSPC